Overview Statistics Trail Chart Weather Telemetry Raw packets
 

This is the latest recevied weather packets stored in our database for station/object N0QV. If no packets are shown the sender has not sent any weather packets the latest 10 day(s).

<< 56 57 58 59 60 61 62 >>
Time Temp. Humidity Pressure Rain* Wind** Luminosity Snow
1788287709 29.44° C 61% 1014.5 hPa 0 mm - 294 W/m² -
1788287405 30° C 59% 1014.4 hPa 0 mm - 365 W/m² -
1788287101 29.44° C 63% 1014.7 hPa 0 mm - 319 W/m² -
1788286801 30° C 62% 1014.7 hPa 0 mm - 316 W/m² -
1788286500 30° C 63% 1014.7 hPa 0 mm - 330 W/m² -
1788286199 29.44° C 66% 1014.8 hPa 0 mm - 496 W/m² -
1788285899 28.89° C 67% 1014.6 hPa 0 mm - 277 W/m² -
1788285604 28.89° C 66% 1014.8 hPa 0 mm - 231 W/m² -
1788285292 28.89° C 68% 1015 hPa 0 mm - 248 W/m² -
1788284987 28.89° C 65% 1014.4 hPa 0 mm - 269 W/m² -
1788284683 28.89° C 66% 1014.5 hPa 0 mm - 327 W/m² -
1788284379 28.89° C 67% 1014.6 hPa 0 mm - 305 W/m² -
1788284073 28.89° C 65% 1014.9 hPa 0 mm - 247 W/m² -
1788283770 28.89° C 66% 1014.8 hPa 0 mm - 299 W/m² -
1788283465 28.89° C 65% 1014.9 hPa 0 mm - 332 W/m² -
1788283163 29.44° C 65% 1015.2 hPa 0 mm - 216 W/m² -
1788282861 29.44° C 64% 1015.2 hPa 0 mm - 313 W/m² -
1788282561 29.44° C 65% 1015 hPa 0 mm - 254 W/m² -
1788282256 29.44° C 63% 1015.1 hPa 0 mm - 625 W/m² -
1788281956 28.89° C 65% 1015 hPa 0 mm - 668 W/m² -
1788281656 28.33° C 66% 1015 hPa 0 mm - 401 W/m² -
1788281353 28.33° C 67% 1015 hPa 0 mm - 389 W/m² -
1788281052 28.33° C 67% 1015.1 hPa 0 mm - 298 W/m² -
1788280747 28.33° C 67% 1015.1 hPa 0 mm - 265 W/m² -
1788280442 28.89° C 66% 1015.2 hPa 0 mm - 373 W/m² -

* Rain latest hour (hover to see other rain measurements)
** Current wind speed in m/s (hover to see current wind gust speed)